Temp
68 61 57 65 64 63 61 59 58 64 70 64 61 62 66 72 70 68 68 67 67 67 68 67 65 64 63 62 60 59 58 58 60 63 63 69 73 76 77 78 79 79 79 75
64 57 66 66 64 62 61 57 57 64 68 63 61 60 67 69 67 67 66 65 60 60 61 61 61 60 59 58 57 57 56 56 57 58 58 62 69 73 77 78 78 79 78 77
58 63 66 63 62 58 59 57 57 57 61 62 60 57 63 66 67 67 66 61 60 57 56 57 58 57 57 54 53 54 54 53 55 53 55 56 60 66 71 73 75 78 79 78
63 69 62 60 58 61 53 61 59 56 53 46 61 44 59 61 61 62 57 57 56 55 57 57 56 56 56 54 53 52 52 52 53 52 50 49 51 53 58 63 75 77 77 78
58 61 57 56 59 61 55 58 55 55 51 50 52 48 55 62 57 53 53 54 55 55 55 54 55 56 57 55 52 51 50 49 49 48 48 48 48 50 53 58 62 73 76 77
61 65 62 59 60 58 59 54 55 54 51 39 49 50 53 57 56 52 52 53 54 54 55 56 57 57 54 52 50 49 48 47 46 46 46 45 45 47 49 52 58 65 74 74
56 56 61 60 54 59 55 49 40 41 39 39 55 49 53 53 53 52 51 52 54 55 54 54 53 52 50 48 47 46 45 44 44 43 44 44 43 46 48 50 54 57 66 68
48 43 56 60 55 53 53 50 39 32 37 40 53 43 47 53 53 52 52 53 51 51 53 53 53 50 48 48 46 44 43 42 43 41 41 43 43 44 46 48 52 55 62 67
50 50 59 59 60 56 52 44 53 42 43 37 44 53 55 54 52 51 50 51 49 52 52 53 52 50 48 46 45 43 41 41 42 41 40 41 42 41 44 46 50 53 56 60
54 43 54 55 56 56 51 56 40 41 28 29 41 45 42 47 48 51 50 49 50 52 52 53 52 50 48 46 45 44 42 39 40 40 40 39 41 41 41 45 46 49 53 55
55 50 48 53 47 48 47 44 46 46 42 32 31 38 51 48 49 47 48 50 50 50 51 51 50 50 47 46 43 42 41 39 38 39 39 38 38 40 40 44 45 46 50 54
55 50 42 46 56 58 54 49 46 34 34 39 36 36 52 49 50 50 48 50 51 52 51 51 49 47 42 41 41 40 39 38 38 38 38 38 38 38 39 40 44 44 45 52
53 44 37 43 48 52 45 49 50 44 39 32 29 35 51 48 48 50 48 49 50 50 51 49 48 40 35 34 36 39 38 38 37 37 37 37 37 37 37 37 41 44 44 48
52 46 42 37 43 48 41 46 49 44 33 35 37 41 42 44 46 46 47 49 48 49 49 48 46 44 37 36 36 39 38 38 38 36 36 35 36 36 37 37 38 41 44 45
49 38 44 46 49 48 47 45 47 44 44 36 41 42 44 46 47 48 49 48 46 46 47 47 46 45 44 43 42 42 40 40 40 37 34 34 39 38 40 38 38 38 41 44
47 37 40 37 47 47 43 46 47 47 46 45 46 44 49 51 51 48 46 45 44 45 46 46 46 45 44 44 43 42 40 41 41 39 37 35 36 40 40 41 41 40 39 42
42 40 38 32 43 42 35 42 45 46 48 43 36 45 49 46 46 45 44 44 44 44 45 45 44 44 44 43 43 41 41 42 40 38 38 39 38 37 39 41 41 41 41 42
42 40 39 34 38 25 43 52 51 46 47 48 48 48 47 47 48 48 46 45 44 44 44 45 44 44 44 45 43 42 43 41 39 37 37 38 39 38 39 39 39 40 40 41
49 43 35 30 32 39 42 45 44 42 41 50 47 46 47 49 48 44 47 47 44 45 46 45 45 45 45 44 43 41 41 40 37 36 36 37 38 37 38 37 37 38 39 38
48 46 37 34 28 25 38 47 52 48 32 49 46 44 43 44 35 35 45 46 44 46 46 45 45 45 44 44 43 41 39 37 35 35 36 37 37 36 36 36 36 37 37 37
36 36 30 32 30 36 46 49 50 30 32 44 44 43 40 35 38 43 46 44 47 47 46 46 45 43 43 43 42 38 39 34 35 36 36 35 36 35 36 34 35 35 34 34
32 31 30 33 29 27 51 47 37 40 44 44 42 41 39 40 43 45 45 44 45 45 45 44 42 41 43 42 40 38 36 36 35 35 34 34 34 35 35 33 33 34 33 31
31 35 34 36 36 47 51 45 47 47 44 42 41 42 43 44 44 43 43 43 44 44 42 42 40 39 40 40 39 36 35 35 33 32 32 32 34 33 33 32 31 31 31 29
42 46 35 38 42 46 45 48 48 47 44 45 45 46 45 42 42 42 41 42 41 40 39 39 37 35 35 37 37 36 34 33 31 29 29 30 30 30 31 31 31 30 29 27
42 45 40 37 43 46 46 47 46 44 44 44 46 45 43 42 41 40 39 39 37 35 35 34 32 31 32 33 33 34 32 31 28 28 28 28 29 29 29 30 30 29 30 29
49 43 37 36 42 40 44 44 45 42 41 44 44 44 44 43 40 39 37 35 31 30 30 29 29 28 29 30 30 30 30 29 27 26 27 28 28 28 28 28 28 33 33 33
MSLP
1010.02 1009.65 1008.87 1008.31 1008.70 1008.71 1008.92 1008.50 1007.79 1007.62 1007.56 1007.89 1008.39 1008.05 1008.04 1007.58 1008.34 1009.13 1009.91 1010.94 1011.89 1012.70 1013.54 1014.44 1015.23 1015.85 1016.13 1015.93 1016.36 1016.32 1016.04 1014.83 1013.77 1012.03 1010.69 1008.88 1007.00 1006.40 1006.60 1006.62 1006.93 1006.70 1006.68 1007.31
1009.46 1009.06 1008.74 1009.19 1009.27 1009.31 1009.20 1009.04 1008.42 1008.22 1008.13 1008.51 1008.66 1008.05 1007.56 1007.68 1008.80 1010.16 1011.36 1012.39 1013.80 1014.72 1015.48 1015.83 1016.23 1016.88 1017.41 1017.08 1017.05 1016.57 1016.89 1016.41 1015.03 1014.31 1012.86 1011.78 1009.52 1007.65 1006.79 1006.05 1005.78 1006.28 1006.04 1006.01
1009.24 1008.79 1009.37 1009.71 1009.54 1009.80 1009.69 1009.42 1009.16 1009.09 1009.50 1009.31 1008.85 1007.76 1006.66 1007.88 1009.58 1011.03 1012.33 1014.06 1015.19 1016.12 1016.84 1016.94 1017.07 1017.28 1017.78 1017.74 1017.88 1017.44 1017.16 1016.99 1016.08 1015.55 1014.04 1012.25 1010.64 1008.66 1006.82 1005.85 1005.34 1004.91 1005.16 1005.12
1009.00 1008.98 1009.73 1009.98 1010.02 1010.12 1010.25 1010.39 1010.36 1010.21 1010.37 1009.41 1008.65 1007.86 1007.19 1007.99 1009.61 1011.43 1013.69 1015.15 1016.22 1016.90 1017.56 1017.59 1017.58 1017.39 1017.69 1017.93 1018.37 1018.38 1017.89 1017.46 1016.61 1016.21 1015.30 1014.42 1013.35 1011.66 1009.68 1008.06 1005.58 1004.45 1004.26 1004.43
1009.41 1009.42 1010.42 1010.52 1010.34 1010.43 1010.95 1011.68 1011.77 1011.28 1011.14 1010.26 1009.36 1008.65 1007.01 1008.18 1009.70 1012.26 1014.81 1016.06 1016.90 1017.74 1017.94 1017.94 1017.69 1017.91 1018.11 1018.11 1018.48 1018.69 1018.45 1018.14 1017.46 1016.75 1016.06 1015.02 1014.01 1012.78 1011.21 1009.05 1007.14 1004.87 1003.46 1003.39
1009.84 1010.56 1010.63 1010.91 1011.36 1012.02 1012.15 1012.26 1011.88 1011.35 1011.50 1010.20 1008.57 1008.50 1007.13 1008.60 1010.57 1013.21 1015.40 1016.62 1017.10 1017.54 1017.76 1017.79 1017.92 1018.53 1018.84 1018.84 1018.89 1018.86 1018.56 1018.28 1018.04 1017.18 1016.37 1015.61 1014.50 1013.34 1011.67 1009.86 1007.75 1005.63 1003.40 1002.46
1010.27 1010.54 1011.05 1011.77 1011.98 1012.14 1012.52 1012.44 1011.71 1010.51 1010.65 1009.05 1008.43 1008.66 1008.43 1010.65 1012.76 1014.49 1015.74 1016.88 1017.63 1017.88 1017.76 1017.77 1018.13 1018.64 1019.17 1019.50 1019.48 1019.18 1018.93 1018.46 1018.09 1017.61 1016.75 1015.79 1014.83 1013.71 1012.35 1010.97 1008.84 1006.62 1004.05 1002.54
1009.42 1009.93 1010.46 1011.50 1011.82 1011.56 1011.83 1012.42 1012.45 1011.16 1010.21 1009.89 1009.47 1009.12 1010.56 1012.23 1014.12 1015.74 1016.87 1017.55 1018.20 1018.08 1018.05 1018.32 1018.61 1019.25 1019.88 1019.99 1019.80 1019.67 1019.41 1018.84 1018.23 1017.85 1017.26 1016.18 1015.19 1013.95 1012.57 1011.43 1009.26 1006.99 1004.74 1002.75
1008.65 1009.10 1010.46 1011.54 1011.91 1012.54 1012.30 1013.03 1012.93 1012.68 1012.41 1011.77 1010.56 1009.93 1011.25 1012.94 1014.55 1015.96 1016.94 1017.42 1018.13 1018.18 1018.17 1018.11 1018.57 1019.28 1019.75 1020.05 1019.98 1019.93 1019.80 1019.37 1018.75 1018.01 1017.51 1016.40 1015.41 1014.31 1012.73 1011.24 1009.50 1007.27 1005.54 1004.26
1009.90 1010.29 1011.00 1011.91 1012.80 1012.88 1013.04 1012.99 1013.59 1013.62 1013.31 1012.07 1010.77 1010.58 1011.81 1013.57 1014.76 1015.68 1016.63 1017.37 1017.84 1018.16 1018.14 1018.10 1018.52 1019.08 1019.68 1020.31 1020.30 1020.10 1020.09 1019.77 1019.12 1018.58 1017.98 1016.90 1015.69 1014.60 1013.03 1011.59 1010.15 1007.47 1006.83 1005.56
1011.09 1011.06 1011.38 1011.95 1012.59 1012.39 1013.15 1013.24 1013.83 1014.04 1013.63 1013.09 1012.23 1012.20 1013.08 1014.20 1015.37 1016.32 1016.94 1017.53 1017.83 1018.01 1018.03 1018.16 1018.63 1019.19 1020.00 1020.28 1020.30 1020.15 1020.07 1019.87 1019.25 1018.77 1017.90 1016.91 1015.88 1014.78 1013.48 1011.83 1010.50 1008.56 1007.97 1006.74
1011.98 1011.67 1011.70 1011.78 1011.94 1012.11 1012.56 1012.74 1013.60 1014.49 1014.60 1013.87 1013.85 1013.51 1014.13 1015.17 1016.08 1016.67 1017.26 1017.47 1017.76 1018.02 1018.17 1018.35 1018.79 1019.39 1019.96 1020.30 1020.28 1020.11 1020.07 1019.84 1019.53 1018.82 1017.85 1016.88 1016.14 1015.16 1013.57 1012.94 1011.09 1009.09 1008.17 1008.33
1012.27 1012.61 1012.22 1011.78 1012.48 1012.78 1013.09 1013.20 1013.48 1014.75 1015.64 1015.25 1015.05 1014.34 1014.90 1015.99 1016.53 1016.92 1017.47 1017.75 1018.09 1018.29 1018.37 1018.56 1018.96 1019.61 1020.18 1020.51 1020.30 1019.90 1019.95 1019.63 1019.39 1018.78 1017.99 1017.08 1016.14 1015.34 1014.26 1013.16 1011.77 1010.60 1009.94 1008.16
1013.22 1012.96 1012.83 1012.25 1011.91 1012.38 1012.73 1012.99 1013.14 1014.12 1014.98 1014.90 1014.70 1014.31 1015.21 1016.31 1016.74 1017.45 1017.98 1017.99 1018.32 1018.50 1018.54 1018.82 1019.20 1019.60 1019.92 1020.12 1019.93 1019.66 1019.67 1019.38 1019.06 1018.78 1018.08 1017.20 1016.25 1015.42 1014.28 1013.51 1012.62 1011.50 1010.26 1009.35
1014.01 1013.90 1013.81 1013.16 1012.71 1012.74 1012.45 1012.71 1012.97 1013.36 1013.93 1014.18 1014.53 1014.34 1015.02 1015.88 1016.60 1017.03 1017.50 1018.13 1018.55 1018.80 1018.93 1019.13 1019.39 1019.59 1019.85 1019.83 1019.71 1019.53 1019.57 1019.08 1018.73 1018.33 1018.06 1017.45 1016.16 1015.42 1014.17 1013.38 1012.35 1011.57 1011.10 1010.05
1014.78 1014.51 1014.59 1014.03 1013.33 1012.93 1012.80 1012.71 1012.69 1013.02 1013.47 1013.70 1013.88 1014.16 1015.42 1016.16 1016.66 1017.39 1018.27 1018.87 1019.18 1019.24 1019.23 1019.40 1019.59 1019.76 1019.86 1019.82 1019.66 1019.53 1019.27 1018.88 1018.60 1018.28 1017.86 1017.62 1016.67 1015.36 1014.40 1013.51 1012.38 1011.51 1010.89 1010.72
1014.80 1015.06 1014.89 1014.31 1013.72 1013.45 1012.96 1012.70 1012.68 1012.73 1013.15 1013.93 1014.43 1014.69 1015.46 1016.41 1017.10 1017.97 1018.72 1019.31 1019.47 1019.61 1019.66 1019.79 1019.86 1019.96 1019.98 1019.88 1019.78 1019.58 1019.21 1018.74 1018.60 1018.53 1018.08 1017.27 1016.52 1015.92 1015.12 1014.28 1013.63 1012.78 1011.92 1010.94
1014.71 1015.17 1015.08 1014.53 1014.01 1013.48 1012.56 1012.40 1012.50 1012.62 1013.36 1014.12 1014.79 1015.31 1016.30 1017.13 1017.57 1018.14 1019.15 1019.55 1019.76 1019.96 1020.03 1020.06 1020.17 1020.24 1020.12 1019.94 1019.86 1019.80 1019.30 1018.89 1018.72 1018.55 1018.21 1017.67 1016.93 1016.06 1015.13 1014.56 1014.14 1013.70 1013.25 1012.32
1014.49 1015.02 1015.12 1015.08 1014.30 1013.38 1013.06 1013.11 1013.33 1013.56 1014.20 1014.55 1015.18 1016.23 1016.99 1017.45 1017.83 1018.56 1019.45 1019.93 1020.24 1020.24 1020.29 1020.36 1020.47 1020.44 1020.21 1020.04 1019.96 1019.82 1019.40 1019.16 1019.04 1018.79 1018.37 1017.71 1017.12 1016.58 1016.01 1015.59 1014.94 1014.07 1013.32 1013.03
1014.78 1015.09 1015.58 1015.26 1014.66 1013.57 1013.18 1013.72 1014.23 1014.82 1015.43 1015.25 1016.52 1017.40 1018.10 1018.44 1018.62 1019.70 1020.04 1020.30 1020.55 1020.54 1020.59 1020.52 1020.58 1020.59 1020.35 1020.32 1020.10 1019.96 1019.69 1019.63 1019.55 1019.28 1018.68 1018.13 1017.60 1017.13 1016.44 1016.13 1015.40 1014.80 1014.16 1014.23
1014.69 1015.44 1015.75 1015.41 1014.87 1013.91 1013.84 1014.44 1015.06 1015.85 1017.05 1017.24 1017.97 1018.39 1019.14 1019.83 1020.21 1020.13 1020.20 1020.54 1020.42 1020.45 1020.55 1020.63 1020.69 1020.72 1020.68 1020.58 1020.50 1020.41 1020.15 1020.31 1020.26 1019.96 1019.44 1018.84 1018.22 1017.58 1016.99 1016.69 1015.98 1015.45 1015.10 1014.62
1014.78 1015.47 1015.62 1015.72 1015.11 1014.22 1013.98 1015.06 1015.82 1016.85 1017.58 1018.31 1018.97 1019.45 1020.00 1020.37 1020.32 1020.32 1020.56 1020.58 1020.56 1020.65 1020.66 1020.91 1021.10 1021.13 1021.01 1021.04 1021.00 1020.88 1020.81 1021.00 1020.90 1020.47 1019.87 1019.18 1018.67 1018.18 1017.53 1016.94 1016.25 1015.75 1015.49 1015.05
1014.76 1015.14 1015.30 1015.15 1014.70 1014.56 1014.71 1015.81 1016.62 1017.29 1018.11 1018.97 1019.51 1020.10 1020.21 1020.16 1020.33 1020.85 1021.04 1021.05 1021.07 1021.19 1021.48 1021.76 1021.88 1021.73 1021.71 1021.68 1021.62 1021.34 1021.39 1021.39 1021.17 1020.78 1020.33 1019.68 1019.08 1018.50 1017.86 1017.25 1016.84 1016.36 1015.99 1015.55
1013.96 1014.46 1015.27 1015.42 1015.20 1015.10 1016.09 1016.67 1017.37 1018.21 1018.80 1019.35 1019.69 1019.95 1020.35 1020.73 1021.19 1021.37 1021.66 1021.79 1022.03 1022.39 1022.64 1022.83 1022.82 1022.72 1022.62 1022.57 1022.38 1022.17 1022.12 1022.02 1021.67 1021.14 1020.55 1019.89 1019.33 1018.67 1018.12 1017.58 1017.08 1016.64 1016.11 1015.83
1012.91 1013.57 1014.50 1015.17 1015.41 1015.57 1016.20 1017.06 1018.17 1019.03 1019.51 1019.79 1020.00 1020.59 1021.16 1021.54 1021.77 1022.15 1022.51 1022.82 1023.35 1023.90 1023.97 1024.12 1024.12 1024.00 1023.68 1023.43 1023.18 1022.97 1022.90 1022.58 1022.07 1021.50 1020.87 1020.13 1019.54 1019.07 1018.65 1018.25 1017.90 1017.38 1017.02 1016.67
1012.23 1012.92 1013.81 1014.38 1015.09 1015.81 1016.35 1017.70 1018.76 1019.42 1019.81 1020.18 1020.42 1020.81 1021.42 1022.05 1022.58 1023.03 1023.40 1024.12 1024.98 1025.21 1025.27 1025.29 1025.29 1025.05 1024.64 1024.32 1024.03 1023.78 1023.54 1023.11 1022.54 1021.97 1021.25 1020.70 1020.32 1019.83 1019.08 1018.47 1017.87 1017.52 1017.12 1016.67
Wind_Speed
13 9 11 12 7 7 6 9 10 12 12 6 8 12 15 7 11 10 12 11 11 15 19 20 19 18 18 16 17 18 20 22 18 16 16 17 11 6 6 7 12 11 14 16
9 12 11 3 1 6 9 12 14 13 8 5 13 16 15 8 12 9 8 9 17 17 18 19 18 16 16 18 17 16 16 18 16 15 16 14 14 11 10 10 13 15 11 16
12 4 6 4 7 7 10 14 15 11 12 14 20 20 16 17 15 10 11 17 16 15 15 15 16 14 13 15 17 18 17 16 14 18 14 15 15 14 10 7 7 13 16 14
11 8 6 7 10 10 11 7 7 8 12 12 14 9 11 20 16 10 16 13 13 15 13 14 15 16 14 13 13 15 18 18 15 16 14 17 13 15 16 15 13 11 9 16
5 7 6 10 12 2 7 7 9 13 15 17 15 12 14 21 20 17 13 12 11 11 12 15 15 16 16 15 14 15 15 17 17 16 15 11 15 13 14 14 20 18 13 14
13 8 3 4 5 0 8 11 15 16 12 11 20 16 9 11 11 17 11 10 10 11 11 12 14 15 15 15 16 15 18 16 17 16 17 15 15 17 16 18 15 15 12 10
12 12 8 4 8 9 7 8 6 6 8 11 4 4 3 15 14 13 10 9 8 10 11 14 16 16 16 17 17 15 17 19 16 18 16 18 16 16 16 17 14 17 14 9
13 8 17 12 12 5 12 4 5 5 4 7 3 6 11 20 17 13 9 9 11 11 9 11 13 14 16 15 16 17 17 18 19 19 18 15 16 11 11 14 14 11 13 11
8 10 13 8 5 3 5 6 5 6 9 9 9 13 17 23 15 12 8 6 7 10 11 12 11 10 13 14 15 15 17 16 17 19 15 17 14 16 15 18 17 11 15 13
8 4 10 9 3 6 7 7 4 5 4 6 7 7 9 9 6 6 8 8 7 9 11 11 10 11 9 12 13 13 14 15 16 18 14 14 15 15 17 14 17 19 17 17
7 6 9 10 9 10 7 6 8 8 8 7 6 2 4 6 9 7 9 8 10 11 10 9 10 9 9 11 11 12 13 16 15 15 15 15 14 15 16 14 14 17 18 17
9 3 9 12 7 2 9 7 11 5 5 5 6 11 12 12 7 7 8 11 11 12 11 10 10 9 8 9 9 9 11 13 14 14 15 14 12 15 14 16 15 13 20 18
6 4 6 10 5 9 8 13 10 5 1 7 5 5 9 8 5 7 10 10 10 13 13 11 11 6 6 6 6 7 9 11 12 14 15 13 13 13 12 15 16 14 15 18
3 5 9 9 5 7 15 14 13 12 8 10 12 13 7 6 4 8 7 10 12 13 15 13 11 10 6 4 6 6 10 12 9 13 14 15 12 14 12 13 13 14 11 15
2 5 10 14 14 7 9 12 14 17 14 12 12 15 10 9 7 8 13 14 14 14 14 14 13 12 12 12 12 11 11 11 12 10 13 14 16 14 14 13 14 13 13 12
5 2 3 11 12 11 13 13 12 14 15 17 17 10 7 8 10 11 11 10 11 13 14 14 14 15 14 14 13 12 12 12 11 13 12 13 16 15 15 15 15 15 14 12
6 5 6 8 14 13 14 13 15 16 14 2 8 9 11 9 9 8 7 8 11 13 13 14 14 14 12 12 12 13 13 12 11 12 13 15 13 14 13 13 13 13 14 15
9 10 7 7 1 12 9 1 10 5 2 4 9 6 4 7 7 4 4 8 11 12 12 12 12 12 12 11 10 12 12 11 12 13 14 14 14 15 14 13 14 12 10 10
10 9 5 5 8 7 6 5 2 2 6 6 5 2 4 7 9 4 3 8 10 11 11 10 11 12 11 11 11 11 12 11 13 14 15 15 15 14 13 12 13 12 11 10
13 9 5 6 10 7 8 8 6 6 5 5 4 1 4 7 7 4 8 9 9 10 10 11 12 12 11 11 11 12 13 12 13 15 16 15 15 15 14 14 14 12 10 10
9 6 8 7 6 1 9 9 3 3 2 5 3 2 4 4 5 10 8 9 9 10 11 11 11 10 11 10 11 12 11 13 13 14 14 14 14 15 14 13 12 12 11 10
9 7 7 6 5 10 12 8 4 6 4 3 1 1 2 5 8 7 9 10 10 10 11 12 11 11 11 11 11 12 12 12 12 13 14 13 12 11 11 13 11 11 10 10
7 4 4 1 1 4 8 10 8 4 7 4 3 2 6 6 6 8 9 10 11 12 12 12 12 12 11 12 12 13 12 13 13 13 13 12 12 11 11 11 10 9 9 9
7 8 1 2 6 8 6 8 5 5 5 5 2 2 4 6 8 8 9 10 10 12 12 13 13 13 13 13 13 13 13 13 13 12 13 12 10 12 10 8 8 8 7 8
6 9 7 3 4 7 5 8 6 6 5 3 2 4 5 5 7 8 8 10 11 11 11 12 12 12 14 14 14 14 13 13 13 12 12 11 9 10 9 8 8 8 7 8
6 7 6 2 8 6 5 10 7 7 5 3 1 2 3 5 7 8 8 9 10 10 12 12 13 13 14 15 14 13 12 12 11 12 9 7 7 8 7 8 8 11 12 13
Wind_Direction
200 229 237 260 23 28 322 304 289 285 290 332 288 285 280 278 74 65 61 49 35 27 29 24 18 16 3 10 7 355 349 345 342 335 347 330 326 284 246 232 247 226 211 195
216 244 252 141 208 302 297 290 281 282 288 305 283 282 281 167 116 94 73 53 46 26 13 14 13 11 0 6 356 355 353 347 343 345 334 326 315 289 283 234 223 234 237 208
239 305 91 265 263 269 264 262 283 264 314 294 271 257 260 138 129 124 86 59 45 34 16 11 10 11 6 13 359 349 349 347 345 348 334 337 332 330 296 268 255 220 222 228
248 247 191 236 254 259 268 11 311 286 283 278 328 290 210 157 159 128 69 55 44 32 20 14 6 5 3 15 3 359 347 343 348 346 343 340 331 323 321 309 289 246 224 224
240 219 228 260 259 325 244 14 298 282 280 284 268 259 256 167 169 102 80 57 49 36 20 4 2 1 357 6 5 354 353 344 344 344 344 341 331 323 318 308 310 290 237 225
251 7 260 303 31 121 332 299 273 254 246 258 261 232 259 165 111 96 80 59 42 27 6 357 6 358 356 358 355 355 346 348 344 338 340 337 331 330 325 322 311 303 269 224
225 222 211 225 238 203 227 263 281 226 212 243 113 295 342 98 78 82 64 58 31 14 6 360 358 355 353 351 348 349 345 340 349 339 336 334 331 327 324 319 309 311 287 253
206 210 208 177 229 304 205 260 277 299 304 320 325 245 118 109 101 91 64 40 16 356 355 353 356 1 341 345 344 347 341 339 339 341 332 332 331 324 324 321 314 316 315 272
239 202 103 146 159 214 178 227 7 309 285 264 261 275 123 123 120 126 92 52 5 351 348 344 3 358 339 352 346 349 340 338 337 338 335 330 332 333 325 329 319 333 338 328
308 137 172 154 204 224 251 12 229 200 244 253 266 286 77 98 72 40 45 21 18 347 344 351 2 356 9 347 344 344 344 336 335 334 332 325 329 332 329 322 333 351 334 335
246 252 172 153 206 224 185 232 232 271 270 271 290 65 91 102 68 27 19 6 2 350 350 352 1 0 4 348 345 344 343 338 335 332 328 330 331 333 329 334 332 2 328 328
233 277 241 212 268 275 319 249 215 230 274 253 258 279 60 62 46 22 6 355 359 342 344 355 355 16 359 344 340 346 344 340 338 329 329 329 327 329 346 322 339 6 345 317
133 233 229 216 207 207 240 243 231 155 175 263 296 271 95 61 356 28 4 351 346 338 335 352 352 19 340 308 314 346 349 342 343 335 334 333 340 334 337 334 337 348 351 332
30 242 254 259 319 323 203 238 216 197 215 244 240 278 130 103 354 31 343 332 353 338 345 349 352 350 355 322 339 348 356 341 348 340 337 334 342 336 344 336 335 341 4 329
227 242 264 273 284 268 279 217 234 231 235 253 273 276 36 29 360 7 358 2 349 343 341 350 348 350 350 351 348 357 352 344 344 352 347 339 336 342 344 343 345 358 350 0
208 228 283 285 264 262 254 258 252 247 256 269 272 292 64 7 360 1 1 353 340 337 346 349 347 348 350 349 348 353 346 345 354 350 354 343 340 344 349 344 356 354 351 347
192 214 214 259 246 243 250 246 254 256 247 337 285 304 0 349 350 1 345 344 341 344 346 344 347 349 347 345 357 350 339 344 359 356 350 345 348 342 349 349 354 349 352 354
197 209 239 261 239 237 245 123 344 223 288 243 261 253 346 319 319 359 30 335 342 341 340 344 345 345 340 344 360 348 339 351 360 360 348 342 350 345 347 355 350 354 354 354
209 206 233 231 237 255 179 194 194 223 258 261 248 324 314 319 322 103 1 354 342 338 339 344 348 340 336 350 352 350 343 1 1 355 347 344 351 349 348 357 346 355 354 7
209 223 251 225 244 266 58 97 98 103 250 169 130 336 311 320 298 95 354 353 336 335 340 343 339 344 346 348 354 348 345 9 2 351 347 347 348 347 351 356 351 355 8 0
192 196 228 234 254 243 149 135 165 212 102 105 37 4 28 314 329 317 340 332 329 343 344 345 354 345 348 353 359 348 351 7 358 348 346 345 345 342 356 349 349 353 357 352
189 196 200 231 259 251 144 132 214 108 109 114 123 5 306 276 286 326 335 333 337 343 347 358 350 346 350 358 359 345 5 0 353 346 343 339 345 347 347 343 342 348 352 357
191 200 217 317 139 104 108 90 82 64 136 126 157 244 268 302 338 343 333 338 344 355 359 357 351 345 356 0 357 350 6 357 348 344 341 337 345 343 344 343 343 344 352 356
208 147 145 188 174 140 114 96 111 90 112 142 168 272 350 350 343 341 348 342 354 1 356 355 351 354 352 357 354 359 1 355 346 343 338 337 342 343 346 345 346 341 352 352
159 174 169 210 233 108 148 135 133 119 112 172 115 34 18 350 347 352 344 356 8 357 356 357 357 351 348 349 351 359 359 352 345 339 335 337 342 342 342 348 343 339 346 348
174 173 184 234 174 151 154 123 148 148 149 190 25 9 47 7 359 356 357 23 8 352 358 356 351 348 346 351 348 352 353 344 339 333 325 328 337 329 326 334 332 337 345 346